FW3224 Weather Reports


time (UTC)temp
F
wind
direction
speed
knots
gust
knots
rain 1hr
in
rain 24hr
in
rain mn
in
humidity
%
barometer
mb
20260505221527 59 204 0.0 0.9 0.00 0.00 0.00 80 1019.7
20260505221027 59 204 0.0 0.9 0.00 0.00 0.00 80 1019.7
20260505220525 59 204 0.0 2.6 0.00 0.00 0.00 81 1019.6
20260505220026 58 204 0.0 2.6 0.00 0.00 0.00 81 1019.6
20260505215528 58 209 0.0 1.7 0.00 0.00 0.00 81 1019.6
20260505215025 58 209 0.0 1.7 0.00 0.00 0.00 81 1019.6
20260505214525 58 209 0.0 1.7 0.00 0.00 0.00 81 1019.6
20260505214026 57 209 0.0 1.7 0.00 0.00 0.00 81 1019.5
20260505213524 57 208 0.0 0.9 0.00 0.00 0.00 81 1019.5
20260505213027 57 208 0.0 1.7 0.00 0.00 0.00 81 1019.4
20260505212524 57 208 0.0 1.7 0.00 0.00 0.00 81 1019.5
20260505212024 57 208 0.0 1.7 0.00 0.00 0.00 81 1019.5
20260505211530 57 208 0.0 0.9 0.00 0.00 0.00 82 1019.4
20260505211024 57 209 0.0 1.7 0.00 0.00 0.00 83 1019.5
20260505210523 57 209 0.0 1.7 0.00 0.00 0.00 83 1019.4
20260505210023 57 209 0.0 0.9 0.00 0.00 0.00 82 1019.5
20260505205526 57 208 0.0 0.9 0.00 0.00 0.00 82 1019.5
20260505205027 57 209 0.0 1.7 0.00 0.00 0.00 82 1019.3
20260505204522 57 209 0.0 1.7 0.00 0.00 0.00 82 1019.3
20260505204026 57 209 0.0 0.0 0.00 0.00 0.00 82 1019.3
20260505203521 57 209 0.0 0.0 0.00 0.00 0.00 82 1019.2
20260505203021 57 209 0.0 1.7 0.00 0.00 0.00 82 1019.2
20260505202521 57 209 0.9 1.7 0.00 0.00 0.00 81 1019.2
20260505202024 57 209 0.0 0.9 0.00 0.00 0.00 81 1019.2
20260505201521 57 209 0.0 0.9 0.00 0.00 0.00 81 1019.2
20260505201021 57 209 0.0 1.7 0.00 0.00 0.00 80 1019.2
20260505200521 57 209 0.0 1.7 0.00 0.00 0.00 80 1019.1
20260505200020 57 202 0.0 1.7 0.00 0.00 0.00 80 1019.1
20260505195520 57 186 0.0 1.7 0.00 0.01 0.00 80 1019.2
20260505195020 57 201 0.0 0.9 0.00 0.01 0.00 80 1019.1
20260505194520 57 201 0.0 0.9 0.00 0.01 0.00 80 1019.1
20260505194021 57 201 0.0 1.7 0.00 0.01 0.00 80 1019.1
20260505193520 57 202 0.0 1.7 0.00 0.01 0.00 80 1019.2
20260505193018 57 209 0.0 0.9 0.00 0.01 0.00 81 1019.1
20260505192519 57 209 0.0 2.6 0.00 0.01 0.00 81 1019.1
20260505192018 57 207 0.0 1.7 0.00 0.01 0.00 82 1019.1
20260505191519 57 208 0.0 0.9 0.00 0.01 0.00 83 1019.1
20260505191018 57 208 0.0 0.9 0.00 0.01 0.00 83 1019.1
20260505190517 57 208 0.0 1.7 0.00 0.01 0.00 84 1019.0
20260505190017 57 208 0.0 0.9 0.00 0.01 0.00 84 1019.0
20260505185517 57 209 0.0 0.9 0.00 0.01 0.00 84 1019.0
20260505185017 57 209 0.0 0.9 0.00 0.01 0.00 85 1019.0
20260505184518 57 200 0.0 0.9 0.00 0.01 0.00 84 1019.0
20260505184016 57 211 0.0 1.7 0.00 0.01 0.00 84 1019.0
20260505183518 57 211 0.0 1.7 0.00 0.01 0.00 83 1019.0
20260505183016 57 198 0.0 1.7 0.00 0.01 0.00 83 1019.0
20260505182516 57 198 0.0 1.7 0.00 0.01 0.00 83 1019.0
20260505182018 57 196 0.0 1.7 0.00 0.01 0.00 83 1018.9
20260505181515 57 202 0.0 1.7 0.00 0.01 0.00 83 1018.9
20260505181015 57 163 0.0 0.9 0.00 0.01 0.00 83 1018.9
20260505180513 57 162 0.0 1.7 0.00 0.01 0.00 83 1018.8
20260505180014 57 162 0.0 1.7 0.00 0.01 0.00 84 1018.8
20260505175513 57 185 0.0 2.6 0.00 0.01 0.00 84 1018.8
20260505175013 57 176 0.0 1.7 0.00 0.01 0.00 85 1018.8
20260505174518 57 171 0.0 1.7 0.00 0.01 0.00 85 1018.8
20260505174011 57 171 0.0 1.7 0.00 0.01 0.00 85 1018.9
20260505173510 57 171 0.0 1.7 0.00 0.01 0.00 86 1018.9
20260505173010 57 148 0.0 2.6 0.00 0.01 0.00 86 1019.0
20260505172512 57 137 0.0 4.3 0.00 0.01 0.00 87 1018.9
20260505172009 57 141 0.9 4.3 0.00 0.01 0.00 87 1019.0
20260505171516 57 165 0.9 2.6 0.00 0.01 0.00 87 1019.0
20260505171009 57 165 0.0 1.7 0.00 0.01 0.00 87 1019.1
20260505170508 57 167 0.9 2.6 0.00 0.01 0.00 87 1019.0
20260505170006 57 153 0.9 2.6 0.00 0.01 0.00 87 1019.0
20260505165507 57 223 0.0 1.7 0.00 0.03 0.00 86 1019.0
20260505165005 57 244 0.0 1.7 0.00 0.03 0.00 85 1019.1
20260505164505 57 252 0.0 1.7 0.00 0.03 0.00 85 1019.0
20260505164004 57 252 0.0 0.0 0.00 0.03 0.00 85 1019.1
20260505163502 58 252 0.0 0.0 0.00 0.03 0.00 84 1019.2
20260505163009 58 252 0.0 0.9 0.00 0.03 0.00 84 1019.2
20260505162502 57 252 0.0 1.7 0.00 0.03 0.00 84 1019.2
20260505162003 57 252 0.9 1.7 0.00 0.03 0.00 85 1019.2
20260505161502 58 252 0.0 1.7 0.00 0.03 0.00 85 1019.2
20260505161002 58 252 0.0 0.9 0.00 0.03 0.00 84 1019.3
20260505160501 58 252 0.0 0.9 0.00 0.03 0.00 84 1019.4
20260505153048 58 252 0.0 1.7 0.00 0.10 0.00 82 1019.5
20260505152548 58 208 0.0 1.7 0.00 0.10 0.00 82 1019.5
20260505152046 58 208 0.0 1.7 0.00 0.10 0.00 82 1019.6
20260505151547 58 208 0.0 1.7 0.00 0.10 0.00 83 1019.6
20260505151048 58 208 0.9 1.7 0.00 0.10 0.00 83 1019.6
20260505150545 58 208 0.0 1.7 0.00 0.10 0.00 83 1019.7
20260505140539 58 144 0.0 0.9 0.00 0.11 0.00 82 1019.9
20260505125035 60 125 0.0 1.7 0.00 0.12 0.11 83 1019.9
20260505124535 60 125 0.0 0.9 0.00 0.12 0.11 83 1020.0
20260505124037 60 125 0.0 1.7 0.00 0.12 0.11 82 1020.0
20260505123536 59 125 0.0 1.7 0.00 0.12 0.11 81 1019.9
20260505123046 59 125 0.0 1.7 0.00 0.12 0.11 81 1019.9
20260505122534 59 125 0.0 1.7 0.00 0.12 0.11 81 1019.9
20260505122034 59 5 0.0 0.0 0.00 0.12 0.11 82 1020.0
20260505121535 59 5 0.0 0.0 0.00 0.12 0.11 83 1020.0
20260505121035 59 5 0.0 0.0 0.00 0.12 0.11 84 1020.1
20260505120532 60 5 0.0 0.0 0.00 0.12 0.11 85 1020.2
20260505120044 60 5 0.0 0.0 0.00 0.12 0.11 85 1020.2
20260505115532 60 5 0.0 0.0 0.00 0.12 0.11 85 1020.2
20260505115032 60 5 0.0 0.0 0.00 0.12 0.11 85 1020.2
20260505114532 60 5 0.0 0.0 0.00 0.12 0.11 84 1020.1
20260505114032 60 5 0.0 0.0 0.00 0.12 0.11 82 1020.1
20260505113531 60 5 0.0 0.0 0.00 0.12 0.11 81 1020.0
20260505113032 60 5 0.0 0.0 0.00 0.12 0.11 79 1020.0
20260505112530 60 5 0.0 0.0 0.00 0.12 0.11 77 1020.0
20260505112030 60 5 0.0 0.0 0.00 0.12 0.11 77 1019.9
20260505111535 61 5 0.0 0.0 0.00 0.12 0.11 77 1019.9
20260505111033 61 5 0.0 0.0 0.00 0.12 0.11 79 1019.8
20260505110529 61 5 0.0 0.0 0.00 0.12 0.11 80 1019.9
20260505102029 62 5 0.0 0.0 0.00 0.15 0.11 74 1019.7
20260505101525 62 5 0.0 0.0 0.00 0.15 0.11 72 1019.6
20260505101025 63 5 0.0 0.9 0.00 0.15 0.11 71 1019.4
20260505100524 63 5 0.0 1.7 0.00 0.15 0.11 70 1019.5
20260505100024 63 5 0.9 1.7 0.00 0.15 0.11 69 1019.4
20260505095525 63 5 0.9 1.7 0.00 0.15 0.11 69 1019.4
20260505095023 63 5 0.0 0.0 0.00 0.15 0.11 69 1019.4
20260505094523 64 5 0.0 0.9 0.00 0.15 0.11 68 1019.3
20260505094023 64 5 0.0 1.7 0.00 0.15 0.11 66 1019.3
20260505093522 64 5 0.9 1.7 0.00 0.15 0.11 67 1019.2
20260505093023 64 5 0.9 2.6 0.00 0.15 0.11 67 1019.2
20260505092525 64 5 0.9 2.6 0.00 0.15 0.11 67 1019.2
20260505092022 64 5 0.9 2.6 0.00 0.15 0.11 67 1019.2
20260505091522 64 5 0.0 0.0 0.00 0.15 0.11 68 1019.1
20260505091021 64 5 0.0 0.0 0.00 0.15 0.11 68 1019.2
20260505090520 64 5 0.0 0.0 0.00 0.15 0.11 68 1019.1
20260505090021 64 5 0.0 1.7 0.00 0.15 0.11 68 1019.0
20260505085519 64 5 0.0 2.6 0.00 0.15 0.11 67 1019.0
20260505085019 64 5 0.9 2.6 0.00 0.15 0.11 67 1018.9
20260505084518 64 5 0.9 2.6 0.00 0.15 0.11 68 1018.8
20260505084019 64 5 1.7 2.6 0.00 0.15 0.11 68 1018.7
20260505083522 64 9 0.9 2.6 0.00 0.15 0.11 68 1018.7
20260505083019 64 9 0.9 2.6 0.00 0.15 0.11 67 1018.6
20260505082522 64 9 0.9 1.7 0.00 0.15 0.11 68 1018.5
20260505082018 64 9 0.9 2.6 0.00 0.15 0.11 69 1018.3
20260505081522 64 13 0.9 2.6 0.00 0.15 0.11 69 1018.2
20260505081021 63 30 0.9 1.7 0.00 0.15 0.11 69 1018.1
20260505080520 63 30 0.9 1.7 0.00 0.15 0.11 70 1018.0
20260505080016 63 30 0.0 0.9 0.00 0.15 0.11 70 1018.0
20260505075517 63 30 0.0 0.9 0.00 0.15 0.11 69 1017.8
20260505075016 64 30 0.0 0.0 0.00 0.15 0.11 69 1017.9
20260505074516 64 30 0.0 0.9 0.00 0.15 0.11 68 1017.9
20260505074016 64 30 0.0 0.9 0.00 0.15 0.11 67 1017.8
20260505073516 65 30 0.0 1.7 0.00 0.15 0.11 67 1017.5
20260505073017 65 30 0.0 1.7 0.00 0.15 0.11 66 1017.5
20260505072516 66 30 0.0 1.7 0.00 0.15 0.11 65 1017.6
20260505072015 66 30 0.0 0.0 0.00 0.15 0.11 64 1017.5
20260505071516 67 30 0.0 0.9 0.00 0.15 0.11 64 1017.4
20260505071016 67 30 0.0 0.9 0.00 0.15 0.11 63 1017.3
20260505070517 68 30 0.0 0.0 0.00 0.15 0.11 63 1017.1
20260505070015 68 30 0.0 0.9 0.00 0.15 0.11 63 1017.2
20260505065515 68 30 0.0 1.7 0.00 0.15 0.11 63 1017.1
20260505065014 68 30 0.0 1.7 0.00 0.15 0.11 63 1017.0
20260505064515 67 109 0.0 0.0 0.00 0.15 0.11 64 1016.9
20260505064014 67 109 0.0 0.9 0.00 0.15 0.11 64 1016.9
20260505063514 67 109 0.0 0.9 0.00 0.15 0.11 64 1016.8
20260505063014 67 109 0.0 1.7 0.00 0.15 0.11 64 1016.9
20260505062514 66 109 0.0 1.7 0.00 0.15 0.11 63 1016.8
20260505062013 67 109 0.0 1.7 0.00 0.15 0.11 62 1016.6
20260505061514 67 109 0.0 3.5 0.00 0.15 0.11 61 1016.8
20260505061013 67 109 0.9 3.5 0.00 0.15 0.11 61 1016.9
20260505060513 68 112 0.9 2.6 0.00 0.15 0.11 59 1016.9
20260505060017 69 97 0.9 5.2 0.00 0.15 0.11 58 1016.8
20260505055514 70 104 0.9 5.2 0.00 0.15 0.11 56 1016.7
20260505055013 70 89 0.9 2.6 0.00 0.15 0.11 54 1016.7
20260505054520 70 94 0.9 2.6 0.00 0.15 0.11 53 1016.5
20260505054012 70 67 0.9 1.7 0.00 0.15 0.11 53 1016.5
20260505053516 71 34 0.0 1.7 0.00 0.15 0.11 54 1016.7
20260505053012 71 34 0.0 1.7 0.00 0.15 0.11 52 1016.7
20260505052512 71 154 0.0 1.7 0.00 0.15 0.11 51 1016.6
20260505052012 71 178 0.0 1.7 0.00 0.15 0.11 49 1016.5
20260505051513 71 80 0.0 1.7 0.00 0.15 0.11 51 1016.3
20260505051012 71 84 0.0 1.7 0.00 0.15 0.11 50 1016.3
20260505050513 71 84 0.0 1.7 0.00 0.15 0.11 49 1016.4
20260505041508 72 244 1.7 6.1 0.00 0.15 0.11 44 1016.3
20260505041007 73 221 1.7 3.5 0.00 0.15 0.11 47 1016.4
20260505040506 72 188 0.9 4.3 0.00 0.15 0.11 46 1016.3
20260505040005 72 252 2.6 4.3 0.00 0.15 0.11 47 1016.3
20260505035505 71 202 1.7 4.3 0.00 0.15 0.11 48 1016.2
20260505035003 71 166 1.7 7.8 0.00 0.15 0.11 48 1016.2
20260505034502 72 293 3.5 7.8 0.00 0.15 0.11 47 1016.1
20260505034101 71 196 0.9 2.6 0.00 0.15 0.11 48 1016.2
20260505033601 71 200 0.9 7.0 0.00 0.15 0.11 49 1016.2
20260505033059 71 250 1.7 7.0 0.00 0.15 0.11 50 1016.1
20260505032558 71 219 1.7 6.1 0.00 0.15 0.11 52 1016.3
20260505032056 71 167 0.9 7.0 0.00 0.15 0.11 52 1016.2
20260505031555 70 205 0.9 7.0 0.00 0.15 0.11 53 1016.3
20260505031054 70 148 0.9 6.1 0.00 0.15 0.11 54 1016.3
20260505030554 70 227 2.6 6.1 0.00 0.15 0.11 53 1016.5
20260505030100 70 223 1.7 6.1 0.00 0.15 0.11 56 1016.5
20260505025550 69 269 2.6 6.1 0.00 0.15 0.11 56 1016.7
20260505025048 69 267 0.9 4.3 0.00 0.15 0.11 57 1016.7
20260505024601 68 247 1.7 6.1 0.00 0.15 0.11 57 1016.9
20260505024047 68 261 3.5 6.1 0.00 0.15 0.11 56 1017.0
20260505023548 68 283 0.9 6.1 0.00 0.15 0.11 59 1017.0
20260505023048 68 236 0.9 3.5 0.00 0.15 0.11 57 1017.0
20260505022547 68 240 2.6 3.5 0.00 0.15 0.11 56 1017.1
20260505022047 68 259 0.9 4.3 0.00 0.15 0.11 56 1017.2
20260505021546 68 215 1.7 6.1 0.00 0.15 0.11 57 1017.2
20260505021045 68 268 2.6 6.1 0.00 0.15 0.11 56 1017.2
20260505020544 68 187 1.7 3.5 0.00 0.15 0.11 56 1017.4
20260505020059 67 239 0.9 5.2 0.00 0.15 0.11 58 1017.4
20260505015544 68 250 1.7 5.2 0.00 0.15 0.11 57 1017.5
20260505015044 68 261 0.9 4.3 0.00 0.15 0.11 58 1017.4
20260505014543 67 267 1.7 7.0 0.00 0.15 0.11 57 1017.6
20260505014042 67 214 1.7 7.0 0.00 0.15 0.11 57 1017.6
20260505013544 67 267 1.7 6.1 0.00 0.15 0.11 59 1017.6
20260505013042 67 244 2.6 6.1 0.00 0.15 0.11 58 1017.8
20260505012542 66 271 2.6 7.8 0.00 0.15 0.11 59 1017.7
20260505012042 66 299 2.6 7.8 0.00 0.15 0.11 60 1017.8
20260505011539 66 238 2.6 5.2 0.00 0.15 0.11 59 1017.9
20260505011040 66 246 2.6 6.1 0.00 0.15 0.11 59 1018.0
20260505010536 66 278 1.7 7.0 0.00 0.15 0.11 58 1017.9
20260505010038 66 264 2.6 7.0 0.00 0.15 0.11 58 1018.0
20260505005536 66 274 2.6 7.8 0.00 0.15 0.11 59 1018.2
20260505005035 65 238 3.5 7.8 0.00 0.15 0.11 58 1018.2
20260505004555 65 252 1.7 6.1 0.00 0.15 0.11 60 1018.1
20260505004036 65 243 3.5 7.0 0.00 0.15 0.11 59 1018.3
20260505003535 65 248 2.6 6.1 0.00 0.15 0.11 60 1018.3
20260505003033 65 277 1.7 4.3 0.00 0.15 0.11 61 1018.3
20260505002533 65 206 1.7 4.3 0.00 0.15 0.11 61 1018.4
20260505002032 65 226 1.7 4.3 0.00 0.15 0.11 61 1018.4
20260505001536 65 249 2.6 7.0 0.00 0.15 0.11 62 1018.5
20260505001032 65 194 2.6 7.0 0.00 0.15 0.11 62 1018.5
20260505000530 65 238 0.9 4.3 0.00 0.15 0.11 64 1018.4
20260505000035 64 209 0.9 4.3 0.00 0.15 0.11 63 1018.3
20260504235529 64 236 1.7 4.3 0.00 0.15 0.11 64 1018.3
20260504235028 64 242 0.9 3.5 0.00 0.15 0.11 66 1018.4
20260504234528 64 234 0.0 3.5 0.00 0.15 0.11 67 1018.4
20260504234027 64 209 0.9 3.5 0.00 0.15 0.11 67 1018.5
20260504233528 63 262 0.9 2.6 0.00 0.15 0.11 68 1018.5
20260504233028 63 261 0.9 3.5 0.00 0.15 0.11 69 1018.5
20260504232527 63 275 0.9 3.5 0.00 0.15 0.11 68 1018.6
20260504232026 63 214 0.9 4.3 0.00 0.15 0.11 69 1018.6
20260504231527 63 211 0.9 4.3 0.00 0.15 0.11 69 1018.6
20260504231027 63 217 1.7 6.1 0.00 0.15 0.11 69 1018.7
20260504230529 63 176 0.9 4.3 0.00 0.15 0.11 70 1018.7
20260504230024 63 223 1.7 4.3 0.00 0.15 0.11 71 1018.8
20260504225525 62 215 0.9 3.5 0.00 0.15 0.11 72 1018.7
20260504225023 62 213 0.9 4.3 0.00 0.15 0.11 73 1018.8
20260504224532 62 207 0.0 4.3 0.00 0.15 0.11 73 1018.7
20260504224023 62 160 0.0 4.3 0.00 0.15 0.11 73 1018.8
20260504223523 61 198 0.9 7.0 0.00 0.15 0.11 74 1018.8
20260504223022 61 125 2.6 7.0 0.00 0.15 0.11 74 1018.7
20260504222520 61 219 0.0 2.6 0.00 0.15 0.11 78 1018.7
20260504222019 60 151 0.0 4.3 0.00 0.15 0.11 78 1018.6